Time,TemperatureF,DewpointF,PressureIn,WindDirection,WindDirectionDegrees,WindSpeedMPH,WindSpeedGustMPH,Humidity,HourlyPrecipIn,Conditions,Clouds,dailyrainin,SoftwareType,DateUTC
2013-03-10 00:01:00,36.0,36.0,-100.00,North,0,4.0,8.0,97,0.00,,,-99.99,,2013-03-10 06:01:00,
2013-03-10 00:11:00,37.0,36.0,-100.00,North,355,4.0,9.0,97,0.00,,,-99.99,,2013-03-10 06:11:00,
2013-03-10 00:22:00,36.0,36.0,-100.00,NNE,15,4.0,9.0,97,0.00,,,-99.99,,2013-03-10 06:22:00,
2013-03-10 00:32:00,36.0,36.0,-100.00,NE,50,4.0,7.0,97,0.00,,,-99.99,,2013-03-10 06:32:00,
2013-03-10 00:42:00,36.0,36.0,-100.00,NE,50,4.0,7.0,97,0.00,,,-99.99,,2013-03-10 06:42:00,
2013-03-10 00:51:00,36.0,36.0,-100.00,NE,50,5.0,7.0,97,0.13,,,-99.99,,2013-03-10 06:51:00,
2013-03-10 01:01:00,36.0,36.0,-100.00,NE,50,5.0,7.0,97,0.13,,,-99.99,,2013-03-10 07:01:00,
2013-03-10 01:11:00,37.0,36.0,-100.00,ENE,60,7.0,9.0,97,0.11,,,-99.99,,2013-03-10 07:11:00,
2013-03-10 01:21:00,37.0,37.0,-100.00,ENE,65,6.0,8.0,97,0.00,,,-99.99,,2013-03-10 07:21:00,
2013-03-10 01:31:00,38.0,37.0,-100.00,ENE,70,4.0,4.0,97,0.13,,,-99.99,,2013-03-10 07:31:00,
2013-03-10 01:42:00,38.0,37.0,-100.00,ENE,70,4.0,4.0,97,0.13,,,-99.99,,2013-03-10 07:42:00,
2013-03-10 01:52:00,39.0,38.0,-100.00,NE,55,4.0,7.0,97,0.00,,,-99.99,,2013-03-10 07:52:00,
2013-03-10 03:01:00,39.0,38.0,-100.00,NE,55,4.0,7.0,97,0.00,,,-99.99,,2013-03-10 08:01:00,
2013-03-10 03:11:00,39.0,38.0,-100.00,ENE,75,6.0,7.0,97,0.10,,,-99.99,,2013-03-10 08:11:00,
2013-03-10 03:21:00,38.0,37.0,-100.00,NNW,340,6.0,13.0,97,0.54,,,-99.99,,2013-03-10 08:21:00,
2013-03-10 03:31:00,38.0,37.0,-100.00,NNW,340,6.0,13.0,97,0.54,,,-99.99,,2013-03-10 08:31:00,
2013-03-10 03:42:00,38.0,38.0,-100.00,North,350,7.0,11.0,97,0.48,,,-99.99,,2013-03-10 08:42:00,
2013-03-10 03:51:00,38.0,38.0,-100.00,North,355,9.0,12.0,97,0.28,,,-99.99,,2013-03-10 08:51:00,
2013-03-10 04:01:00,38.0,37.0,-100.00,North,355,9.0,13.0,97,0.18,,,-99.99,,2013-03-10 09:01:00,
2013-03-10 04:11:00,38.0,37.0,-100.00,North,355,9.0,13.0,97,0.18,,,-99.99,,2013-03-10 09:11:00,
2013-03-10 04:21:00,38.0,37.0,-100.00,North,350,7.0,14.0,97,0.18,,,-99.99,,2013-03-10 09:21:00,
2013-03-10 04:31:00,38.0,37.0,-100.00,North,0,9.0,15.0,97,0.00,,,-99.99,,2013-03-10 09:31:00,
2013-03-10 04:41:00,38.0,37.0,-100.00,North,0,9.0,15.0,97,0.00,,,-99.99,,2013-03-10 09:41:00,
2013-03-10 04:52:00,37.0,36.0,-100.00,North,350,7.0,11.0,97,0.57,,,-99.99,,2013-03-10 09:52:00,
2013-03-10 05:01:00,37.0,36.0,-100.00,North,350,7.0,11.0,97,0.57,,,-99.99,,2013-03-10 10:01:00,
2013-03-10 05:11:00,37.0,36.0,-100.00,NNW,340,8.0,11.0,97,0.44,,,-99.99,,2013-03-10 10:11:00,
2013-03-10 05:21:00,36.0,36.0,-100.00,NNW,345,7.0,13.0,97,0.14,,,-99.99,,2013-03-10 10:21:00,
2013-03-10 05:32:00,36.0,36.0,-100.00,NNW,330,6.0,11.0,97,0.00,,,-99.99,,2013-03-10 10:32:00,
2013-03-10 05:41:00,36.0,36.0,-100.00,NNW,330,6.0,11.0,97,0.00,,,-99.99,,2013-03-10 10:41:00,
2013-03-10 05:51:00,36.0,35.0,-100.00,NW,320,10.0,17.0,97,0.00,,,-99.99,,2013-03-10 10:51:00,
2013-03-10 06:01:00,36.0,35.0,-100.00,NW,320,10.0,17.0,97,0.00,,,-99.99,,2013-03-10 11:01:00,
2013-03-10 06:11:00,36.0,35.0,-100.00,NNW,345,13.0,19.0,97,0.16,,,-99.99,,2013-03-10 11:11:00,
2013-03-10 06:21:00,35.0,35.0,-100.00,North,355,12.0,18.0,97,0.31,,,-99.99,,2013-03-10 11:21:00,
2013-03-10 06:31:00,35.0,34.0,-100.00,NNW,345,12.0,20.0,97,0.30,,,-99.99,,2013-03-10 11:31:00,
2013-03-10 06:42:00,35.0,34.0,-100.00,NNW,345,12.0,20.0,97,0.30,,,-99.99,,2013-03-10 11:42:00,
2013-03-10 06:52:00,35.0,34.0,-100.00,North,0,11.0,17.0,97,0.14,,,-99.99,,2013-03-10 11:52:00,
2013-03-10 07:01:00,35.0,34.0,-100.00,North,0,11.0,17.0,97,0.14,,,-99.99,,2013-03-10 12:01:00,
2013-03-10 07:11:00,35.0,34.0,-100.00,North,355,12.0,17.0,97,0.07,,,-99.99,,2013-03-10 12:11:00,
2013-03-10 07:21:00,35.0,34.0,-100.00,North,355,15.0,21.0,97,0.07,,,-99.99,,2013-03-10 12:21:00,
2013-03-10 07:31:00,35.0,34.0,-100.00,North,355,15.0,21.0,97,0.07,,,-99.99,,2013-03-10 12:31:00,
2013-03-10 07:42:00,35.0,34.0,-100.00,North,355,15.0,21.0,97,0.07,,,-99.99,,2013-03-10 12:42:00,
2013-03-10 07:51:00,35.0,34.0,-100.00,North,355,15.0,21.0,97,0.07,,,-99.99,,2013-03-10 12:51:00,
2013-03-10 08:21:00,35.0,34.0,-100.00,North,355,16.0,21.0,97,0.00,,,-99.99,,2013-03-10 13:21:00,
2013-03-10 08:32:00,35.0,34.0,-100.00,North,0,19.0,26.0,97,0.34,,,-99.99,,2013-03-10 13:32:00,
2013-03-10 08:42:00,35.0,34.0,-100.00,North,0,19.0,26.0,97,0.34,,,-99.99,,2013-03-10 13:42:00,
2013-03-10 08:52:00,35.0,34.0,-100.00,North,0,16.0,23.0,97,0.31,,,-99.99,,2013-03-10 13:52:00,
2013-03-10 09:01:00,35.0,34.0,-100.00,North,0,16.0,23.0,97,0.31,,,-99.99,,2013-03-10 14:01:00,
2013-03-10 09:11:00,35.0,34.0,-100.00,North,355,16.0,22.0,97,0.11,,,-99.99,,2013-03-10 14:11:00,
2013-03-10 09:21:00,35.0,34.0,-100.00,North,355,12.0,21.0,97,0.00,,,-99.99,,2013-03-10 14:21:00,
2013-03-10 09:32:00,35.0,34.0,-100.00,NNW,345,11.0,20.0,97,0.00,,,-99.99,,2013-03-10 14:32:00,
2013-03-10 09:41:00,35.0,34.0,-100.00,NNW,345,11.0,20.0,97,0.00,,,-99.99,,2013-03-10 14:41:00,
2013-03-10 09:51:00,35.0,34.0,-100.00,North,5,9.0,20.0,97,0.10,,,-99.99,,2013-03-10 14:51:00,
2013-03-10 10:01:00,35.0,34.0,-100.00,North,5,9.0,20.0,97,0.10,,,-99.99,,2013-03-10 15:01:00,
2013-03-10 10:11:00,35.0,34.0,-100.00,North,355,15.0,20.0,97,1.12,,,-99.99,,2013-03-10 15:11:00,
2013-03-10 10:21:00,35.0,34.0,-100.00,North,355,16.0,22.0,97,0.55,,,-99.99,,2013-03-10 15:21:00,
2013-03-10 10:32:00,35.0,34.0,-100.00,North,355,13.0,21.0,97,0.27,,,-99.99,,2013-03-10 15:32:00,
2013-03-10 10:42:00,35.0,34.0,-100.00,North,355,13.0,21.0,97,0.27,,,-99.99,,2013-03-10 15:42:00,
2013-03-10 10:51:00,35.0,34.0,-100.00,North,0,9.0,19.0,97,0.06,,,-99.99,,2013-03-10 15:51:00,
2013-03-10 11:01:00,35.0,34.0,-100.00,North,0,9.0,19.0,97,0.06,,,-99.99,,2013-03-10 16:01:00,
2013-03-10 11:11:00,35.0,34.0,-100.00,North,0,9.0,19.0,97,0.06,,,-99.99,,2013-03-10 16:11:00,
2013-03-10 11:21:00,35.0,34.0,-100.00,NW,325,9.0,-999.0,97,0.91,,,-99.99,,2013-03-10 16:21:00,
2013-03-10 11:31:00,35.0,34.0,-100.00,North,0,10.0,16.0,97,0.31,,,-99.99,,2013-03-10 16:31:00,
2013-03-10 11:41:00,35.0,34.0,-100.00,North,0,10.0,16.0,97,0.31,,,-99.99,,2013-03-10 16:41:00,
2013-03-10 11:52:00,35.0,34.0,-100.00,North,10,10.0,20.0,97,0.20,,,-99.99,,2013-03-10 16:52:00,
2013-03-10 12:01:00,35.0,34.0,-100.00,North,10,10.0,20.0,97,0.20,,,-99.99,,2013-03-10 17:01:00,
2013-03-10 12:11:00,35.0,34.0,-100.00,North,0,11.0,21.0,97,0.00,,,-99.99,,2013-03-10 17:11:00,
2013-03-10 12:21:00,35.0,34.0,-100.00,North,10,12.0,21.0,97,0.00,,,-99.99,,2013-03-10 17:21:00,
2013-03-10 12:31:00,35.0,35.0,-100.00,NNE,15,13.0,21.0,96,0.00,,,-99.99,,2013-03-10 17:31:00,
2013-03-10 12:41:00,35.0,35.0,-100.00,NNE,15,13.0,21.0,96,0.00,,,-99.99,,2013-03-10 17:41:00,
2013-03-10 12:51:00,35.0,35.0,-100.00,North,10,11.0,22.0,96,0.00,,,-99.99,,2013-03-10 17:51:00,
2013-03-10 13:01:00,35.0,35.0,-100.00,North,10,11.0,22.0,96,0.00,,,-99.99,,2013-03-10 18:01:00,
2013-03-10 13:11:00,35.0,34.0,-100.00,North,5,9.0,17.0,96,0.00,,,-99.99,,2013-03-10 18:11:00,
2013-03-10 13:21:00,35.0,35.0,-100.00,North,5,13.0,20.0,96,0.04,,,-99.99,,2013-03-10 18:21:00,
2013-03-10 13:32:00,35.0,34.0,-100.00,NNE,30,10.0,19.0,96,0.01,,,-99.99,,2013-03-10 18:32:00,
2013-03-10 13:41:00,35.0,34.0,-100.00,NNE,30,10.0,19.0,96,0.01,,,-99.99,,2013-03-10 18:41:00,
2013-03-10 13:52:00,35.0,34.0,-100.00,North,5,10.0,16.0,96,0.03,,,-99.99,,2013-03-10 18:52:00,
2013-03-10 14:01:00,35.0,34.0,-100.00,North,5,10.0,16.0,96,0.03,,,-99.99,,2013-03-10 19:01:00,
2013-03-10 14:11:00,35.0,34.0,-100.00,North,5,9.0,16.0,96,0.27,,,-99.99,,2013-03-10 19:11:00,
2013-03-10 14:21:00,35.0,34.0,-100.00,North,5,11.0,17.0,96,0.61,,,-99.99,,2013-03-10 19:21:00,
2013-03-10 14:32:00,35.0,34.0,-100.00,NNE,30,8.0,18.0,96,0.24,,,-99.99,,2013-03-10 19:32:00,
2013-03-10 14:42:00,35.0,34.0,-100.00,NNE,30,8.0,18.0,96,0.24,,,-99.99,,2013-03-10 19:42:00,
2013-03-10 14:52:00,35.0,34.0,-100.00,North,0,6.0,14.0,96,0.55,,,-99.99,,2013-03-10 19:52:00,
2013-03-10 15:02:00,35.0,34.0,-100.00,North,0,6.0,14.0,96,0.55,,,-99.99,,2013-03-10 20:02:00,
2013-03-10 15:12:00,35.0,34.0,-100.00,North,355,6.0,12.0,96,0.78,,,-99.99,,2013-03-10 20:12:00,
2013-03-10 15:22:00,35.0,34.0,-100.00,North,0,6.0,9.0,96,0.85,,,-99.99,,2013-03-10 20:22:00,
2013-03-10 15:32:00,35.0,33.0,-100.00,North,0,9.0,14.0,96,0.64,,,-99.99,,2013-03-10 20:32:00,
2013-03-10 15:42:00,35.0,33.0,-100.00,North,0,9.0,14.0,96,0.64,,,-99.99,,2013-03-10 20:42:00,
2013-03-10 15:52:00,34.0,33.0,-100.00,North,0,11.0,14.0,96,0.16,,,-99.99,,2013-03-10 20:52:00,
2013-03-10 16:02:00,34.0,33.0,-100.00,North,0,11.0,14.0,96,0.16,,,-99.99,,2013-03-10 21:02:00,
2013-03-10 16:12:00,34.0,33.0,-100.00,NNW,345,9.0,15.0,96,0.33,,,-99.99,,2013-03-10 21:12:00,
2013-03-10 16:22:00,33.0,32.0,-100.00,North,355,9.0,13.0,96,0.96,,,-99.99,,2013-03-10 21:22:00,
2013-03-10 16:32:00,33.0,32.0,-100.00,NNW,340,8.0,16.0,96,0.10,,,-99.99,,2013-03-10 21:32:00,
2013-03-10 16:42:00,33.0,32.0,-100.00,NNW,340,8.0,16.0,96,0.10,,,-99.99,,2013-03-10 21:42:00,
2013-03-10 16:52:00,33.0,32.0,-100.00,NNW,340,11.0,16.0,96,0.33,,,-99.99,,2013-03-10 21:52:00,
2013-03-10 17:02:00,33.0,32.0,-100.00,NNW,340,11.0,16.0,96,0.33,,,-99.99,,2013-03-10 22:02:00,
2013-03-10 17:12:00,33.0,32.0,-100.00,NNW,340,11.0,17.0,96,0.23,,,-99.99,,2013-03-10 22:12:00,
2013-03-10 17:22:00,33.0,32.0,-100.00,NNW,345,12.0,17.0,96,0.23,,,-99.99,,2013-03-10 22:22:00,
2013-03-10 17:32:00,33.0,32.0,-100.00,North,350,12.0,19.0,96,0.13,,,-99.99,,2013-03-10 22:32:00,
2013-03-10 17:42:00,33.0,32.0,-100.00,North,350,12.0,19.0,96,0.13,,,-99.99,,2013-03-10 22:42:00,
2013-03-10 17:52:00,33.0,32.0,-100.00,NNW,345,14.0,17.0,96,0.04,,,-99.99,,2013-03-10 22:52:00,
2013-03-10 18:03:00,33.0,32.0,-100.00,NNW,345,14.0,17.0,96,0.04,,,-99.99,,2013-03-10 23:03:00,
2013-03-10 18:12:00,33.0,32.0,-100.00,NNW,340,12.0,20.0,96,0.03,,,-99.99,,2013-03-10 23:12:00,
2013-03-10 18:22:00,33.0,32.0,-100.00,NNW,345,12.0,17.0,96,0.06,,,-99.99,,2013-03-10 23:22:00,
2013-03-10 18:32:00,33.0,32.0,-100.00,NNW,340,14.0,23.0,96,0.07,,,-99.99,,2013-03-10 23:32:00,
2013-03-10 18:42:00,33.0,32.0,-100.00,NNW,340,14.0,23.0,96,0.07,,,-99.99,,2013-03-10 23:42:00,
2013-03-10 18:52:00,33.0,32.0,-100.00,NNW,340,14.0,23.0,96,0.04,,,-99.99,,2013-03-10 23:52:00,
2013-03-10 19:02:00,33.0,32.0,-100.00,NNW,340,14.0,23.0,96,0.04,,,-99.99,,2013-03-11 00:02:00,
2013-03-10 19:12:00,33.0,32.0,-100.00,NNW,345,15.0,21.0,96,0.08,,,-99.99,,2013-03-11 00:12:00,
2013-03-10 19:22:00,33.0,32.0,-100.00,NNW,345,17.0,20.0,96,0.10,,,-99.99,,2013-03-11 00:22:00,
2013-03-10 19:33:00,33.0,32.0,-100.00,NNW,345,15.0,21.0,96,0.07,,,-99.99,,2013-03-11 00:33:00,
2013-03-10 19:42:00,33.0,32.0,-100.00,NNW,345,15.0,21.0,96,0.07,,,-99.99,,2013-03-11 00:42:00,
2013-03-10 19:52:00,33.0,32.0,-100.00,North,350,15.0,21.0,96,0.07,,,-99.99,,2013-03-11 00:52:00,
2013-03-10 20:02:00,33.0,32.0,-100.00,North,350,15.0,21.0,96,0.07,,,-99.99,,2013-03-11 01:02:00,
2013-03-10 20:12:00,33.0,32.0,-100.00,North,350,17.0,21.0,96,0.06,,,-99.99,,2013-03-11 01:12:00,
2013-03-10 20:22:00,33.0,32.0,-100.00,North,350,17.0,22.0,96,0.11,,,-99.99,,2013-03-11 01:22:00,
2013-03-10 20:32:00,33.0,32.0,-100.00,NNW,335,16.0,21.0,96,0.16,,,-99.99,,2013-03-11 01:32:00,
2013-03-10 20:42:00,33.0,32.0,-100.00,NNW,335,16.0,21.0,96,0.16,,,-99.99,,2013-03-11 01:42:00,
2013-03-10 20:52:00,33.0,32.0,-100.00,North,350,14.0,19.0,96,0.14,,,-99.99,,2013-03-11 01:52:00,
2013-03-10 21:02:00,33.0,32.0,-100.00,North,350,14.0,19.0,96,0.14,,,-99.99,,2013-03-11 02:02:00,
2013-03-10 21:12:00,33.0,32.0,-100.00,NNW,345,15.0,21.0,96,0.20,,,-99.99,,2013-03-11 02:12:00,
2013-03-10 21:22:00,33.0,32.0,-100.00,NNW,345,14.0,21.0,96,0.38,,,-99.99,,2013-03-11 02:22:00,
2013-03-10 21:32:00,33.0,32.0,-100.00,NNW,345,15.0,23.0,96,0.33,,,-99.99,,2013-03-11 02:32:00,
2013-03-10 21:42:00,33.0,32.0,-100.00,NNW,345,15.0,23.0,96,0.33,,,-99.99,,2013-03-11 02:42:00,
2013-03-10 21:52:00,33.0,32.0,-100.00,NNW,340,16.0,21.0,96,0.44,,,-99.99,,2013-03-11 02:52:00,
2013-03-10 22:02:00,33.0,32.0,-100.00,NNW,340,16.0,21.0,96,0.44,,,-99.99,,2013-03-11 03:02:00,
2013-03-10 22:12:00,33.0,32.0,-100.00,NNW,340,16.0,23.0,96,0.96,,,-99.99,,2013-03-11 03:12:00,
2013-03-10 22:22:00,33.0,32.0,-100.00,NNW,340,16.0,21.0,96,0.54,,,-99.99,,2013-03-11 03:22:00,
2013-03-10 22:32:00,32.0,31.0,-100.00,NNW,340,15.0,24.0,96,1.35,,,-99.99,,2013-03-11 03:32:00,
2013-03-10 22:42:00,32.0,31.0,-100.00,NNW,340,15.0,24.0,96,1.35,,,-99.99,,2013-03-11 03:42:00,
2013-03-10 22:52:00,32.0,31.0,-100.00,NNW,345,15.0,22.0,96,0.50,,,-99.99,,2013-03-11 03:52:00,
2013-03-10 23:02:00,32.0,31.0,-100.00,NNW,345,15.0,22.0,96,0.50,,,-99.99,,2013-03-11 04:02:00,
2013-03-10 23:12:00,32.0,31.0,-100.00,NNW,340,14.0,21.0,96,0.58,,,-99.99,,2013-03-11 04:12:00,
2013-03-10 23:22:00,32.0,31.0,-100.00,NNW,345,15.0,22.0,96,0.59,,,-99.99,,2013-03-11 04:22:00,
2013-03-10 23:32:00,32.0,31.0,-100.00,NNW,340,16.0,24.0,96,0.30,,,-99.99,,2013-03-11 04:32:00,
2013-03-10 23:42:00,32.0,31.0,-100.00,NNW,340,16.0,24.0,96,0.30,,,-99.99,,2013-03-11 04:42:00,
2013-03-10 23:52:00,32.0,31.0,-100.00,NNW,335,14.0,22.0,96,0.07,,,-99.99,,2013-03-11 04:52:00,